This demonstration page uses our WeatherBlox Daily Observations layout. Learn more.

39.92423, -83.80882

Hourly Observations for April 19, 2019

Temp ( °F °C ) Dew Point ( °F °C ) Humidity (%) Winds ( mph kmh ) Pressure ( in mb ) Visibility ( mi km ) Precip ( " mm )
12:14 am 00:14 Partly Cloudy 57 14 55 13 94 94 N 9 15 29.61 1003 10 16.0934 0 0
12:52 am 00:52 Mostly Cloudy 57 14 55 13 94 94 N 12 19 29.59 1002 10 16.0934 0 0
12:56 am 00:56 Mostly Cloudy 57 13.9 56 13.3 96 96 N 12 19 29.58 1002 10 16.0934 0 0
1:56 am 01:56 Cloudy 54 12.2 53 11.7 97 97 N 13 20 29.57 1002 8 12.87472 0 0
2:04 am 02:04 Cloudy 54 12 54 12 100 100 N 12 19 29.58 1002 8 12.87472 0 0
2:52 am 02:52 Cloudy with Rain 54 12 52 11 94 94 N 13 20 29.58 1002 10 16.0934 0 0.0254
2:56 am 02:56 Cloudy with Rain 53 11.7 52 11.1 96 96 NNW 12 19 29.57 1001 10 16.0934 0.01 0.254
3:42 am 03:42 Cloudy with Rain 52 11 52 11 100 100 N 8 13 29.57 1001 9 14.48406 0 0
3:56 am 03:56 Cloudy with Rain 52 11.1 52 11.1 100 100 NW 9 15 29.56 1001 9 14.48406 0 0
4:56 am 04:56 Cloudy with Light Rain 50 10 50 10 100 100 N 14 22 29.51 999 7 11.26538 0.02 0.508
5:56 am 05:56 Cloudy with Light Rain 47 8.3 46 7.8 97 97 NNW 18 30 29.54 1000 7 11.26538 0 0
6:33 am 06:33 Cloudy with Rain 45 7 45 7 100 100 NNW 15 24 29.58 1002 8 12.87472 0.01 0.254
6:43 am 06:43 Cloudy with Rain 45 7 45 7 100 100 NNW 14 22 29.57 1001 6 9.65604 0.01 0.254
6:56 am 06:56 Cloudy with Light Rain 44 6.7 44 6.7 100 100 NNW 15 24 29.55 1001 5 8.0467 0.02 0.508
7:56 am 07:56 Cloudy with Light Rain 44 6.7 43 6.1 96 96 N 15 24 29.57 1001 8 12.87472 0.01 0.254
8:56 am 08:56 Cloudy 44 6.7 44 6.7 100 100 N 10 17 29.6 1002 10 16.0934 0 0.0254
9:56 am 09:56 Cloudy 45 7.2 45 7.2 100 100 N 9 15 29.6 1002 10 16.0934 0.01 0.254
10:56 am 10:56 Cloudy 46 7.8 45 7.2 96 96 N 12 19 29.59 1002 10 16.0934 0 0
11:56 am 11:56 Cloudy with Light Rain 47 8.3 47 8.3 100 100 NNE 14 22 29.59 1002 10 16.0934 0 0.0254
12:56 pm 12:56 Cloudy with Rain 48 8.9 47 8.3 96 96 NNE 18 30 29.58 1002 6 9.65604 0 0
1:56 pm 13:56 Cloudy with Rain 48 8.9 48 8.9 100 100 N 13 20 29.57 1001 7 11.26538 0 0
2:56 pm 14:56 Cloudy with Light Rain 48 8.9 47 8.3 96 96 NNE 16 26 29.57 1002 5 8.0467 0 0
3:56 pm 15:56 Cloudy with Rain 48 8.9 47 8.3 96 96 N 16 26 29.55 1001 8 12.87472 0 0
4:56 pm 16:56 Cloudy with Light Rain 47 8.3 47 8.3 100 100 N 23 37 29.55 1001 10 16.0934 0 0.0254
5:56 pm 17:56 Cloudy with Rain 46 7.8 46 7.8 100 100 NNE 22 35 29.56 1001 2.5 4.02335 0.01 0.254
6:04 pm 18:04 Cloudy with Heavy Rain 45 7 45 7 100 100 NNE 20 31 29.57 1001 3 4.82802 0 0.0254
6:56 pm 18:56 Cloudy with Rain 44 6.7 44 6.7 100 100 NNE 25 41 29.55 1001 7 11.26538 0 0
7:46 pm 19:46 Cloudy with Light Rain 43 6 43 6 100 100 N 21 33 29.59 1002 2.5 4.02335 0 0
7:54 pm 19:54 Cloudy with Light Rain 43 6 43 6 100 100 N 17 28 29.59 1002 4 6.43736 0 0
7:56 pm 19:56 Cloudy with Light Rain 43 6.1 43 6.1 100 100 NNE 17 28 29.57 1002 4 6.43736 0 0
8:56 pm 20:56 Cloudy with Light Rain 42 5.6 42 5.6 100 100 NNE 22 35 29.54 1000 10 16.0934 0 0
9:56 pm 21:56 Cloudy with Light Rain 42 5.6 41 5 96 96 NNE 15 24 29.58 1002 10 16.0934 0 0
10:56 pm 22:56 Cloudy with Light Rain 42 5.6 41 5 96 96 N 22 35 29.56 1001 10 16.0934 0 0.0254
11:56 pm 23:56 Cloudy 41 5 40 4.4 96 96 NNE 23 37 29.54 1000 10 16.0934 0 0.0254

Powered by AerisWeather